sat.trackr.live / text

‹ back to catalog

STARLINK-2501

NORAD 48330 · 2021-036BG

PAYLOAD ACTIVE UNKNOWN

§ Identity

Operator
Country
US
Launch date
2021-04-29
Launch site
AFETR
Launch vehicle
Mass (kg)
RCS (m²)

Purposes: comms

External: N2YO · Heavens-Above · Gunter

§ Orbital elements

Epoch: 2026-09-19T16:26:11.081472Z

Period
94.01 min
Inclination
53.1593°
Eccentricity
0.0001561
Mean motion
15.31699596 rev/d
Perigee alt
469.7 km
Apogee alt
471.8 km
Semi-major
6,848.9 km
B*
1.6696e-5
RAAN
278.6585°
Arg perigee
63.3531°
Mean anomaly
296.7630°
Rev number
29,776

§ Raw data

STARLINK-25011 48330U 21036BG  26262.68485048  .00000153  00000+0  16696-4 0  99912 48330  53.1593 278.6585 0001561  63.3531 296.7630 15.31699596297769

JSON: /api/v1/satellites/48330 · /tle

For live sub-satellite position, see the globe view (requires WebGL).

§ Visibility from observer

Set your observer location to see the next 7 days of passes ≥ 10°. The values pass through the URL so the page stays shareable.

No JS? Fill the form by hand. The geolocation button needs JavaScript.